GOSAT-GW (IBUKI GW)

Last updated on Mon Jun 22 2026 00:02:52 GMT+0000 (Coordinated Universal Time)

1 64694U 25141A 26172.55376296 .00000470 00000+0 91252-4 0 9996 2 64694 98.0573 109.7998 0001437 83.6135 276.5234 14.67555276 52483
UTC large
Height (km)
Speed (km/s)
/
Latitude / Longitude
Inclination (degrees)
Orbital Period (minutes)
Azimuth
Elevation
Range (km)
Doppler Factor

Next 0 passes for location: London (51.5072 / 0.1276)

No passes found over London.
GOSAT-GW (IBUKI GW)